www.pogodaiklimat.ru
ПОГОДА в Ньюпорте
Время
и дата
09:53 03.02
10:53 03.02
11:53 03.02
12:53 03.02
13:53 03.02
14:53 03.02
15:53 03.02
16:53 03.02
17:53 03.02
18:53 03.02
19:53 03.02
20:53 03.02
21:53 03.02
22:53 03.02
23:53 03.02
00:53 04.02
01:53 04.02
02:53 04.02
03:53 04.02
04:53 04.02
05:53 04.02
06:53 04.02
07:53 04.02
08:53 04.02
09:53 04.02
10:53 04.02
11:53 04.02
12:53 04.02
13:53 04.02
14:53 04.02
15:53 04.02
16:53 04.02
17:53 04.02
18:53 04.02
19:53 04.02
20:53 04.02
21:53 04.02
22:53 04.02
23:42 04.02
23:53 04.02
00:03 05.02
00:53 05.02
01:53 05.02
02:53 05.02
03:53 05.02
04:53 05.02
05:53 05.02
06:53 05.02
Ветер
(напр.,м/с)
Видим. Явления Облачность Т
(С)
Тd
(С)
f
(%)
Тe
(С)
Тes
(С)
Комфортность P
(гПа)
Po
(гПа)
Тmin
(С)
Tmax
(С)
R
(мм)
R24
(мм)
S
(см)
СЗ 9
{13}
16 км ясно -6.1 -20.0 32 -15 -15 1011.2 1004.8
СЗ 12
{16}
16 км ясно -6.7 -22.8 27 -17 -17 1011.4 1004.8
СЗ 11
{16}
16 км ясно -7.2 -22.2 29 -17 -17 1011.3 1004.8
З 10
{14}
16 км ясно -7.2 -22.2 29 -17 -16 1011.3 1004.8 -7.2 -1.7
СЗ 9
{17}
16 км ясно -7.8 -22.2 30 -17 -17 1011.8 1005.5
З 10
{15}
16 км ясно -8.3 -22.2 32 -18 -18 1012.8 1006.5
СЗ 10
{15}
16 км ясно -8.9 -22.8 31 -19 -19 1013.8 1007.2
СЗ 11
{17}
16 км ясно -10.6 -22.8 36 -22 -22 1015.6 1009.2
СЗ 12
{17}
16 км ясно -12.8 -25.0 35 -25 -25 1017.7 1011.2
СЗ 11
{19}
16 км ясно -13.9 -26.1 35 -26 -26 1019.1 1012.6 -13.9 -7.2
СЗ 15
{21}
16 км ясно -15.0 -26.7 36 -29 -29 1020.7 1014.3
СЗ 13
{23}
16 км 2/0 2100 m
[Ac]
-15.6 -26.7 38 -29 -29 1021.6 1014.9
СЗ 12
{20}
16 км 2/2 1950 м -16.7 -27.2 40 -30 -30 1022.6 1015.9
СЗ 12
{18}
16 км 10/10 1290 м -17.2 -27.2 41 -31 -31 опасность
обморожения
1023.6 1017.0
СЗ 12
{17}
16 км ясно -18.9 -28.9 41 -33 -33 опасность
обморожения
1025.3 1018.6
СЗ 13
{19}
16 км ясно -20.0 -30.6 38 -35 -35 опасность
обморожения
1027.0 1020.3 -20.0 -13.9
СЗ 12
{18}
16 км ясно -21.1 -31.7 38 -36 -36 опасность
обморожения
1028.3 1021.7
СЗ 12
{17}
16 км ясно -21.7 -31.7 40 -37 -37 опасность
обморожения
1029.5 1022.7
СЗ 10
{15}
16 км ясно -21.7 -32.2 38 -36 -36 опасность
обморожения
1029.9 1023.0
СЗ 9
{14}
16 км ясно -21.7 -31.1 42 -35 -35 опасность
обморожения
1030.9 1024.0
СЗ 10
{14}
16 км ясно -21.7 -31.1 42 -36 -36 опасность
обморожения
1031.3 1024.7
СЗ 9
{12}
16 км ясно -21.7 -31.1 42 -35 -35 опасность
обморожения
1033.0 1026.0 -22.2 -20.0
СЗ 7
{10}
16 км ясно -21.1 -30.6 42 -33 -33 опасность
обморожения
1033.8 1027.0
СЗ 5 16 км ясно -19.4 -30.0 38 -29 -29 1034.9 1028.1
СЗ 6
{9}
16 км ясно -18.3 -30.0 35 -29 -28 1035.6 1028.7
З 5 16 км ясно -16.1 -29.4 31 -25 -23 1035.3 1028.4
СЗ 7
{9}
16 км ясно -14.4 -28.9 28 -25 -23 1033.8 1027.0
СЗ 5
{9}
16 км ясно -12.8 -27.8 27 -21 -18 1033.6 1026.7 -21.7 -12.8
СЗ 4 16 км ясно -11.1 -26.7 26 -18 -14 1032.9 1026.0
СЗ 5
{9}
16 км ясно -10.6 -26.7 25 -18 -16 1032.6 1025.7
нст 3 16 км ясно -10.6 -26.1 27 -16 -15 1033.2 1026.4
З 4 16 км 8/0 3600 m
[Ac]
-10.6 -25.6 28 -17 -17 1033.4 1026.7
З 4 16 км 8/0 2700 m
[Ac]
-10.0 -25.6 27 -17 -17 1033.8 1027.0
З 2 16 км 8/0 2400 m
[Ac]
-10.0 -24.4 30 -14 -14 1033.6 1026.7 -12.8 -10.0
штиль 0 16 км 8/0 2400 m
[Ac]
-10.0 -22.8 34 -10 -10 1033.2 1026.4
штиль 0 16 км 2/0 2400 m
[Ac]
-9.4 -20.0 42 -10 -10 1033.3 1026.4
штиль 0 16 км ясно -9.4 -18.3 48 -10 -10 1032.7 1026.0
штиль 0 16 км 10/8 960 m
[Ac]
-9.4 -16.7 55 -10 -10 1031.9 1025.4
штиль 0 16 км 10/10 720 м -7.8 -13.9 62 -8 -8 1024.4
штиль 0 14 км 10/10 780 м -7.2 -13.3 62 -8 -8 1030.7 1024.0
штиль 0 14 км 10/10 720 м -7.2 -12.2 67 -8 -8 1023.7
нст 2 16 км 2/2 1110 м -5.6 -9.4 75 -10 -10 1029.6 1023.0 -10.0 -5.6
штиль 0 16 км 10/10 1950 м -4.4 -10.0 65 -5 -5 1028.6 1022.0
ЮЗ 4 16 км 2/2 1950 м -1.1 -6.1 69 -6 -6 1027.6 1021.0
ЮЗ 4
{10}
16 км 10/10 1950 м 0.0 -6.1 63 -5 -5 1026.8 1020.3
ЮЗ 6
{9}
16 км ясно +0.6 -5.6 63 -5 -5 1026.1 1019.6
ЮЗ 6
{10}
16 км ясно +1.7 -5.0 61 -4 -4 1025.3 1018.6
ЮЗ 6
{9}
16 км ясно +2.2 -3.9 64 -3 -3 1024.8 1018.3 -5.6 +2.2
Местоположение метеостанции Newport State Airport: широта 41.5300 долгота -71.2836 высота над уровнем моря 52 м.
В архиве по умолчанию представлена погода в Ньюпорте за последние 1-2 суток. Обновление информации о фактической погоде в базе происходит ежечасно! Архивные данные за месяц целиком и за предыдущие месяцы Вы можете получить, выбрав интересующий диапазон дат из раскрывающегося списка и нажав кнопку "Ввод!".
Внимание! Архив погоды МЕТАР в базе сайта по станциям, не включенным в климатический монитор, хранится не более 60 дней. Нет смысла пытаться выбрать более раннюю дату.
*Определитесь, кто Вы:
Внимание! Время в таблицах - местное (без учета летнего времени). Для получения всемирного времени необходимо вычесть поправку, которая равна -5 ч.
Смотрите также архив погоды в соседних городах и на ближайших метеорологических станциях:
Партнеры нашего сайта:      
Пояснения к столбцам:
  • Ветер - указаны скорость ветра в м/с - средняя за 10 мин, порывы в срок и между сроками (в фигурных скобках) и направление, откуда дует ветер: С - северный,
  • СВ - северо-восточный, В - восточный, ЮВ - юго-восточный, Ю - южный, ЮЗ - юго-западный, З - западный, СЗ - северо-западный.
  • Видимость - горизонтальная дальность видимости в метрах или километрах. При видимости от 1 до 10 км при отсутствии осадков обычно наблюдается дымка, при ухудшении видимости до 1 км и менее - туман. В сухую погоду видимость может ухудшаться дымом, пылью или мглою.
  • Явления - указаны атмосферные явления, наблюдавшиеся в срок или в последний час перед сроком; фигурными скобками обозначены явления, наблюдавшиеся между сроками (за 1-3 часа до срока); квадратными скобками обозначены град или гололедные отложения с указанием их диаметра в мм.
  • Облачность - указаны через наклонную черту общая и нижняя облачность в баллах и высота нижней границы облаков в метрах; квадратными скобками обозначены формы облаков: Ci - перистые, Cs - перисто-слоистые, Cc - перисто-кучевые, Ac - высококучевые, As - высокослоистые, Sc - слоисто-кучевые, Ns - слоисто-дождевые, Cu - кучевые, Cb - кучево-дождевые. Подробнее классификацию облаков см. в Атласе облаков (PDF).
  • T - Температура воздуха - температура, измеренная на высоте 2 м над землей.
  • Td - Температура точки росы - температура, при понижении до которой содержащийся в воздухе водяной пар достигнет насыщения.
  • f - Относительная влажность воздуха - влажноcть воздуха, измеренная на высоте 2 м над землей.
  • Te - Эффективная температура - температура, которую ощущает одетый по сезону человек в тени. Характеристика душности погоды. При расчете учитывается влияние влажности воздуха и скорости ветра на теплоощущения человека.
  • Tes - Эффективная температура на солнце - температура, которую ощущает человек, с поправкой на солнечный нагрев. Характеристика знойности погоды. Зависит от высоты солнца над горизонтом, облачности и скорости ветра. Ночью, в пасмурную погоду, а также при ветре 12 м/с и более поправка равна нулю.
  • P - Атмосферное давление - приведенное к уровню моря атмосферное давление.
  • Po - Атмосферное давление - измеренное на уровне метеостанции атмосферное давление.
  • Tmin - Минимальная температура - минимум температуры воздуха на высоте 2 м над землей.
  • Tmax - Максимальная температура - максимум температуры воздуха на высоте 2 м над землей.
  • R - Количество осадков - Количество выпавших осадков за период времени, мм. При наведении курсора мыши на число - период времени, за который выпало указанное количество осадков.
  • R24 - Количество осадков - Количество выпавших осадков за 24 часа, мм.
  • S - Снежный покров - Высота снежного покрова, см. При наведении курсора мыши на число - состояние снежного покрова и степень покрытия местности в баллах.